DateTimeUTC,F1_A11,F1_S11,BsB_S11,BsG_S11,BsR_S11,BbsB_S11,BbsG_S11,BbsR_S11,BaB_A11,BaG_A11,BaR_A11,Tu_S11,T_S11,Uu_S11,U_S11,P_S11,T1_A11
2021-09-30T15:00:00Z,00000200,20000000,,,,,,,-000.12,0000.12,0000.20,17.4,24.3,01.5,01.0,0670.7,31.0
2021-09-30T15:01:00Z,00000200,20000000,,,,,,,0000.14,0000.27,0000.09,17.5,24.3,01.5,01.0,0670.7,31.0
2021-09-30T15:02:00Z,00000200,20000000,,,,,,,0000.03,-000.17,0000.17,17.5,24.3,01.5,01.0,0670.7,31.0
2021-09-30T15:03:00Z,00000200,60000000,,,,,,,0000.42,0000.41,-000.10,17.5,24.4,01.5,01.0,0670.7,31.0
2021-09-30T15:04:00Z,00000200,41000000,0000.35,0000.37,-000.13,0000.54,0000.21,0000.02,-000.40,-000.21,0000.11,17.8,24.3,01.7,01.2,0671.7,31.0
2021-09-30T15:05:00Z,00000200,01000000,0000.14,0000.14,0000.19,0000.33,-000.16,0000.34,0000.14,0000.03,0000.27,17.9,24.2,01.8,01.2,0671.5,31.0
2021-09-30T15:06:00Z,00000200,01000000,0000.28,0000.21,0000.13,-000.55,0000.09,0000.29,0000.14,0000.26,-000.32,17.9,24.2,01.8,01.2,0671.5,31.0
2021-09-30T15:07:00Z,00000200,01000000,0000.42,0000.29,0000.04,0000.09,0000.15,0000.14,0000.32,0000.07,0000.27,17.9,24.2,01.9,01.3,0671.5,31.0
2021-09-30T15:08:00Z,00000200,01000000,-000.77,0000.50,0000.12,0000.39,-000.02,0000.28,0000.13,0000.29,0000.26,17.8,24.2,01.8,01.2,0671.5,31.0
2021-09-30T15:09:00Z,00000200,01000000,-000.38,0000.41,-000.00,0000.18,-000.04,0000.22,0000.09,-000.16,-000.33,17.8,24.2,01.8,01.2,0671.5,31.0
2021-09-30T15:10:00Z,00000200,01000000,-000.23,0000.16,0000.06,0000.65,-000.07,0000.02,0000.08,0000.27,0000.19,17.8,24.2,01.8,01.2,0671.5,31.0
2021-09-30T15:11:00Z,00000200,01000000,-000.44,0000.27,-000.15,-000.08,-000.01,-000.14,-000.02,0000.10,0000.07,17.8,24.2,01.8,01.2,0671.5,31.0
2021-09-30T15:12:00Z,00000200,01000000,-000.40,0000.20,-000.18,-000.04,0000.31,0000.20,0000.34,0000.17,0000.03,17.8,24.1,01.8,01.2,0671.6,31.0
2021-09-30T15:13:00Z,00000200,01000000,0000.66,0000.69,0000.18,0000.06,0000.13,0000.36,-000.24,-000.33,0000.29,17.8,24.1,01.7,01.2,0671.5,31.0
2021-09-30T15:14:00Z,00000200,01000000,0000.26,0000.79,0000.16,0000.44,0000.06,0000.13,0000.06,0000.05,-000.13,17.9,24.1,01.7,01.2,0671.6,31.0
2021-09-30T15:15:00Z,00000200,01000000,-000.10,-000.07,-000.13,-000.20,-000.04,0000.02,0000.05,0000.12,0000.09,17.9,24.2,01.8,01.2,0671.6,31.0
2021-09-30T15:16:00Z,00000200,01000000,0000.16,0000.59,-000.13,-000.23,0000.09,0000.10,-000.10,0000.25,0000.19,18.0,24.2,01.7,01.2,0671.6,31.0
2021-09-30T15:17:00Z,00000200,01000000,0000.44,0000.23,0000.01,-000.10,-000.05,-000.07,0000.35,-000.15,-000.32,18.0,24.2,01.7,01.2,0671.6,31.0
2021-09-30T15:18:00Z,00000200,01000000,-000.52,0000.21,0000.06,0000.44,0000.54,0000.37,-000.26,-000.24,0000.17,18.0,24.2,01.6,01.1,0671.6,31.0
2021-09-30T15:19:00Z,00000200,01000000,-000.02,0000.03,0000.11,-000.72,0000.29,0000.22,0000.08,0000.14,-000.36,18.0,24.2,01.6,01.1,0671.6,31.0
2021-09-30T15:20:00Z,00000200,01000000,0001.27,0000.04,-000.40,-000.23,0000.33,-000.01,0000.13,0000.09,0000.28,18.0,24.2,01.6,01.1,0671.6,31.0
2021-09-30T15:21:00Z,00000200,01000000,-000.57,-000.05,-000.32,-000.16,0000.24,0000.22,-000.02,0000.01,0000.10,18.0,24.2,01.6,01.1,0671.7,31.0
2021-09-30T15:22:00Z,00000200,01000000,-000.54,0000.24,-000.10,-000.01,-000.05,0000.13,0000.36,-000.23,0000.01,18.0,24.2,01.6,01.1,0671.7,31.0
2021-09-30T15:23:00Z,00000200,01000000,0000.30,0000.62,0000.02,-001.30,0000.39,0000.09,-000.38,0000.26,-000.11,18.0,24.2,01.5,01.0,0671.7,31.0
2021-09-30T15:24:00Z,00000200,01000000,0000.08,0000.34,0000.25,-000.11,0000.31,0000.00,0000.04,-000.26,0000.09,17.9,24.2,01.5,01.0,0671.7,31.0
2021-09-30T15:25:00Z,00000200,01000000,-000.42,0001.06,-000.14,-000.04,0000.21,0000.20,0000.02,0000.62,0000.27,17.9,24.2,01.5,01.0,0671.7,31.0
2021-09-30T15:26:00Z,00000200,01000000,0000.78,0000.20,-000.06,0000.17,0000.30,0000.01,0000.15,-000.32,-000.58,17.9,24.2,01.4,01.0,0671.6,31.0
2021-09-30T15:27:00Z,00000200,01000000,0000.11,0000.49,0000.32,-000.48,0000.24,0000.59,0000.36,0000.15,0000.42,17.9,24.1,01.3,00.9,0671.6,31.0
2021-09-30T15:28:00Z,00000200,01000000,-000.05,0000.27,0000.18,-000.04,-000.32,0000.34,-000.19,0000.03,0000.16,17.9,24.1,01.3,00.9,0671.6,31.0
2021-09-30T15:29:00Z,00000200,01000000,0000.64,0000.19,-000.07,0000.29,0000.16,-000.01,0000.04,0000.09,-000.14,18.0,24.2,01.2,00.8,0671.7,31.0
2021-09-30T15:30:00Z,00000200,01000000,-000.17,0000.29,-000.29,-000.16,0000.06,0000.23,-000.02,0000.20,0000.09,18.0,24.2,01.2,00.8,0671.7,31.0
2021-09-30T15:31:00Z,00000200,01000000,-000.05,0000.45,0000.29,0000.35,0000.07,0000.23,-000.09,-000.25,-000.10,18.1,24.2,01.1,00.8,0671.7,31.0
2021-09-30T15:32:00Z,00000200,01000000,-000.06,0000.53,-000.02,0000.24,-000.06,0000.07,0000.41,0000.13,0000.15,18.1,24.2,01.1,00.7,0671.7,31.0
2021-09-30T15:33:00Z,00000200,01000000,0000.24,0000.63,0000.12,-000.09,0000.28,0000.20,-000.30,-000.18,0000.30,18.1,24.2,01.0,00.7,0671.7,31.0
2021-09-30T15:34:00Z,00000200,01000000,0000.29,0000.01,0000.01,-000.26,0000.04,0000.14,0000.10,0000.07,-000.34,18.1,24.2,01.0,00.7,0671.7,31.0
2021-09-30T15:35:00Z,00000200,01000000,0000.28,0000.50,0000.14,-000.34,0000.10,0000.12,0000.04,0000.21,0000.08,18.1,24.2,01.0,00.7,0671.7,31.0
2021-09-30T15:36:00Z,00000200,01000000,-000.22,-000.15,0000.02,0000.49,0000.22,0000.06,0000.09,-000.12,0000.06,18.0,24.2,01.0,00.7,0671.7,31.0
2021-09-30T15:37:00Z,00000200,01000000,0000.08,0000.69,0000.26,-000.08,0000.28,0000.30,0000.23,0000.13,0000.07,18.0,24.2,00.9,00.6,0671.7,31.0
2021-09-30T15:38:00Z,00000200,01000000,-000.22,0000.44,-000.25,0000.22,0000.04,-000.17,0000.10,0000.19,0000.15,18.0,24.2,00.9,00.6,0671.7,31.0
2021-09-30T15:39:00Z,00000200,01000000,0000.39,0000.46,0000.01,0000.19,0000.29,0000.47,-000.02,0000.19,0000.16,18.0,24.2,00.9,00.6,0671.7,31.0
2021-09-30T15:40:00Z,00000200,01000000,-000.19,0000.70,-000.19,-000.22,0000.17,0000.37,0000.44,0000.23,0000.06,18.0,24.2,00.9,00.6,0671.7,31.0
2021-09-30T15:41:00Z,00000200,01000000,-000.12,0000.47,0000.11,-000.06,-000.14,0000.34,-000.30,-000.01,0000.17,18.0,24.2,00.9,00.6,0671.7,31.0
2021-09-30T15:42:00Z,00000200,01000000,0000.16,0000.46,0000.07,-000.20,0000.31,0000.16,0000.39,-000.00,-000.03,18.0,24.2,01.0,00.7,0671.7,31.0
2021-09-30T15:43:00Z,00000200,01000000,-000.07,0000.70,0000.01,-000.20,0000.07,0000.15,0000.12,0000.32,0000.06,18.0,24.2,00.9,00.6,0671.6,31.0
2021-09-30T15:44:00Z,00000200,01000000,0000.30,0000.35,0000.38,0000.18,0000.06,0000.30,0000.26,0000.12,0000.38,18.0,24.2,00.9,00.6,0671.6,31.0
2021-09-30T15:45:00Z,00000200,01000000,-000.06,0000.24,0000.15,-000.47,0000.17,0000.23,-000.37,-000.01,-000.26,18.1,24.2,00.9,00.6,0671.6,31.0
2021-09-30T15:46:00Z,00000200,01000000,0000.14,0000.55,0000.37,-000.21,-000.11,0000.34,0000.48,0000.46,0000.17,18.1,24.3,00.9,00.6,0671.6,31.0
2021-09-30T15:47:00Z,00000200,01000000,0001.22,0000.46,0000.07,-000.54,-000.17,-000.12,0000.00,-000.25,0000.09,18.2,24.3,00.9,00.6,0671.6,31.0
2021-09-30T15:48:00Z,00000200,01000000,0000.31,0000.26,0000.12,-000.26,-000.36,0000.26,0000.03,-000.01,-000.04,18.2,24.3,00.9,00.6,0671.5,31.0
2021-09-30T15:49:00Z,00000200,01000000,0000.29,0000.50,-000.20,-000.22,-000.05,0000.16,-000.07,0000.17,0000.07,18.2,24.3,00.9,00.6,0671.6,31.0
2021-09-30T15:50:00Z,00000200,01000000,0000.22,0000.64,0000.19,0000.40,0000.42,0000.11,0000.29,0000.05,0000.03,18.2,24.3,00.9,00.6,0671.6,31.0
2021-09-30T15:51:00Z,00000200,01000000,0000.21,0000.45,0000.22,0000.28,-000.00,0000.31,0000.05,0000.21,0000.17,18.1,24.3,00.8,00.6,0671.6,31.0
2021-09-30T15:52:00Z,00000200,01000000,0000.81,0000.15,-000.37,-000.46,0000.21,0000.10,0000.16,0000.07,0000.05,18.1,24.3,00.9,00.6,0671.6,31.0
2021-09-30T15:53:00Z,00000200,01000000,0000.50,0000.66,0000.19,-000.41,0000.03,-000.04,-000.07,0000.11,0000.17,18.1,24.3,00.9,00.6,0671.6,31.0
2021-09-30T15:54:00Z,00000200,01000000,0000.01,0000.30,0000.10,-000.19,0000.46,0000.02,0000.27,-000.02,-000.19,18.1,24.3,00.8,00.6,0671.6,31.0
2021-09-30T15:55:00Z,00000200,01000000,0001.00,0000.12,-000.12,-000.36,0000.34,-000.03,-000.10,0000.15,0000.20,18.1,24.3,00.9,00.6,0671.6,31.0
2021-09-30T15:56:00Z,00000200,01000000,0000.62,0000.21,0000.25,-000.15,0000.07,0000.39,0000.06,0000.12,0000.06,18.1,24.3,00.8,00.5,0671.6,31.0
2021-09-30T15:57:00Z,00000200,41000000,,,,,,,0000.87,0000.18,0000.69,18.1,24.3,00.6,00.4,0671.6,31.0
2021-09-30T15:58:00Z,00000200,61000000,,,,,,,-000.43,0000.06,-000.37,17.9,24.4,00.9,00.6,0670.6,31.0
2021-09-30T15:59:00Z,00000200,21000000,,,,,,,-000.23,-000.11,-000.14,17.9,24.5,00.9,00.6,0670.6,31.0
